Alpine, TX

8:50 AM CST on February 06, 2016 (GMT -0600)
Alpine

Weather History for KE38 - March, 2014

Change the Weather History Date:

Monday, March 17, 2014

  Actual Average (KMRF) Record (KMRF)
Temperature  
Mean Temperature 53 °F -  
Max Temperature 74 °F 66 °F 82 °F (2011)
Min Temperature 32 °F 34 °F 17 °F (2005)
Degree Days  
Heating Degree Days 12    
Growing Degree Days 3 (Base 50)    
Moisture  
Dew Point 17 °F    
Average Humidity 29    
Maximum Humidity 72    
Minimum Humidity 9    
Precipitation  
Precipitation 0.00 in - - ()
Sea Level Pressure  
Sea Level Pressure 30.01 in    
Wind  
Wind Speed 12 mph (SW)    
Max Wind Speed 23 mph    
Max Gust Speed 32 mph    
Visibility 10 miles    
Events      
Averages and records for this station are not official NWS values.
T = Trace of Precipitation, MM = Missing Value Source: NWS Daily Summary

Daily Weather History Graph

Daily Weather History Graph

Search for Another Location

Airport or City:

Trip Planner

Search our weather history database for the weather conditions in past years. The results will help you decide how hot, cold, wet, or windy it might be!

Date:

Astronomy

Mar. 17, 2014 Rise Set
Actual Time 8:02 AM CDT 8:04 PM CDT
Civil Twilight 7:38 AM CDT 8:28 PM CDT
Nautical Twilight 7:10 AM CDT 8:56 PM CDT
Astronomical Twilight 6:42 AM CDT 9:24 PM CDT
Moon 9:15 PM CDT (3/17) 8:24 AM CDT (3/17)
Length of Visible Light 12h 50m
Length of Day
12h 02m
Full, 99% of the Moon is Illuminated
Mar 17
Full
Mar 23
Last Quarter
Mar 30
New
Apr 7
First Quarter
Apr 15
Full

Hourly Weather History & Observations

Time (CDT) Temp. Windchill Dew Point Humidity Pressure Visibility Wind Dir Wind Speed Gust Speed Precip Events Conditions
12:15 AM 37.6 °F 30.5 °F 24.3 °F 59% 30.24 in 10.0 mi West 10.4 mph - N/A   Clear
12:35 AM 37.4 °F 31.4 °F 24.6 °F 60% 30.24 in 10.0 mi West 8.1 mph - N/A   Clear
1:15 AM 36.5 °F 30.3 °F 23.7 °F 60% 30.22 in 10.0 mi West 8.1 mph - N/A   Clear
1:35 AM 35.8 °F 28.8 °F 23.9 °F 62% 30.21 in 10.0 mi West 9.2 mph - N/A   Clear
1:55 AM 36.7 °F 29.4 °F 23.0 °F 58% 30.20 in 10.0 mi West 10.4 mph - N/A   Clear
2:15 AM 36.0 °F 29.0 °F 23.0 °F 59% 30.20 in 10.0 mi West 9.2 mph - N/A   Clear
2:35 AM 36.9 °F 30.1 °F 22.6 °F 56% 30.19 in 10.0 mi WSW 9.2 mph - N/A   Clear
2:55 AM 32.0 °F 24.8 °F 23.4 °F 70% 30.18 in 10.0 mi WSW 8.1 mph - N/A   Clear
3:15 AM 32.0 °F 24.2 °F 23.9 °F 72% 30.18 in 10.0 mi WSW 9.2 mph - N/A   Clear
3:35 AM 35.2 °F 27.6 °F 22.5 °F 60% 30.17 in 10.0 mi WSW 10.4 mph - N/A   Clear
3:55 AM 32.4 °F - 22.5 °F 67% 30.16 in 10.0 mi Calm Calm - N/A   Clear
4:15 AM 33.3 °F - 22.1 °F 64% 30.15 in 10.0 mi Calm Calm - N/A   Clear
4:35 AM 33.1 °F 24.9 °F 22.6 °F 66% 30.15 in 10.0 mi SW 10.4 mph - N/A   Clear
4:55 AM 36.3 °F 28.9 °F 21.9 °F 56% 30.14 in 10.0 mi SW 10.4 mph - N/A   Clear
5:15 AM 37.8 °F 31.3 °F 21.6 °F 52% 30.13 in 10.0 mi SW 9.2 mph - N/A   Clear
5:35 AM 40.1 °F 34.1 °F 20.5 °F 45% 30.12 in 10.0 mi WSW 9.2 mph - N/A   Clear
5:55 AM 39.4 °F 33.8 °F 20.3 °F 46% 30.11 in 10.0 mi SW 8.1 mph - N/A   Clear
6:15 AM 39.6 °F 34.7 °F 20.3 °F 46% 30.11 in 10.0 mi SW 6.9 mph - N/A   Clear
6:35 AM 42.1 °F 37.1 °F 18.5 °F 39% 30.11 in 10.0 mi WSW 8.1 mph - N/A   Clear
6:55 AM 39.6 °F 34.0 °F 19.8 °F 45% 30.11 in 10.0 mi SW 8.1 mph - N/A   Clear
7:15 AM 38.3 °F 32.5 °F 19.6 °F 47% 30.10 in 10.0 mi SW 8.1 mph - N/A   Clear
7:35 AM 38.5 °F 32.1 °F 19.4 °F 46% 30.10 in 10.0 mi SSW 9.2 mph - N/A   Clear
7:55 AM 39.4 °F 33.2 °F 19.0 °F 44% 30.10 in 10.0 mi SSW 9.2 mph - N/A   Clear
8:15 AM 40.1 °F 34.1 °F 18.5 °F 42% 30.11 in 10.0 mi SW 9.2 mph - N/A   Clear
8:35 AM 43.0 °F 38.2 °F 18.3 °F 37% 30.11 in 10.0 mi South 8.1 mph - N/A   Clear
8:55 AM 46.6 °F - 17.6 °F 32% 30.11 in 10.0 mi WSW 9.2 mph - N/A   Clear
9:15 AM 47.1 °F - 19.0 °F 33% 30.11 in 10.0 mi SSW 10.4 mph - N/A   Clear
9:35 AM 49.1 °F - 19.4 °F 31% 30.10 in 10.0 mi SW 11.5 mph - N/A   Clear
9:55 AM 52.9 °F - 17.1 °F 24% 30.10 in 10.0 mi SW 10.4 mph - N/A   Clear
10:15 AM 53.8 °F - 18.5 °F 25% 30.09 in 10.0 mi SW 15.0 mph 19.6 mph N/A   Clear
10:35 AM 55.2 °F - 18.0 °F 23% 30.09 in 10.0 mi SW 15.0 mph 20.7 mph N/A   Clear
10:55 AM 57.2 °F - 18.7 °F 22% 30.08 in 10.0 mi WSW 16.1 mph - N/A   Clear
11:15 AM 58.6 °F - 18.7 °F 21% 30.08 in 10.0 mi WSW 16.1 mph 21.9 mph N/A   Clear
11:35 AM 59.4 °F - 18.3 °F 20% 30.08 in 10.0 mi WSW 17.3 mph - N/A   Clear
11:55 AM 61.5 °F - 19.6 °F 20% 30.08 in 10.0 mi WSW 16.1 mph - N/A   Clear
12:15 PM 62.6 °F - 18.7 °F 18% 30.07 in 10.0 mi WSW 17.3 mph 21.9 mph N/A   Clear
12:35 PM 63.9 °F - 19.4 °F 18% 30.06 in 10.0 mi SW 16.1 mph 20.7 mph N/A   Clear
12:55 PM 64.8 °F - 19.2 °F 17% 30.04 in 10.0 mi SW 18.4 mph 21.9 mph N/A   Clear
1:15 PM 66.2 °F - 18.7 °F 16% 30.03 in 10.0 mi SW 21.9 mph 25.3 mph N/A   Clear
1:35 PM 67.8 °F - 18.3 °F 15% 30.02 in 10.0 mi SW 23.0 mph 26.5 mph N/A   Clear
1:55 PM 68.4 °F - 18.0 °F 15% 30.00 in 10.0 mi SW 20.7 mph 25.3 mph N/A   Clear
2:15 PM 68.9 °F - 18.1 °F 14% 29.99 in 10.0 mi SW 23.0 mph 29.9 mph N/A   Clear
2:35 PM 68.5 °F - 17.4 °F 14% 29.98 in 10.0 mi SW 16.1 mph 32.2 mph N/A   Clear
2:55 PM 71.2 °F - 16.9 °F 13% 29.96 in 10.0 mi WSW 18.4 mph 31.1 mph N/A   Clear
3:15 PM 71.2 °F - 16.5 °F 12% 29.94 in 10.0 mi SW 19.6 mph 28.8 mph N/A   Clear
3:35 PM 72.3 °F - 15.3 °F 11% 29.93 in 10.0 mi WSW 23.0 mph 26.5 mph N/A   Clear
3:55 PM 73.4 °F - 14.4 °F 11% 29.91 in 10.0 mi SW 20.7 mph 29.9 mph N/A   Clear
4:15 PM 72.9 °F - 11.7 °F 10% 29.91 in 10.0 mi WSW 19.6 mph 31.1 mph N/A   Clear
4:35 PM 73.8 °F - 10.6 °F 9% 29.89 in 10.0 mi WSW 20.7 mph 27.6 mph N/A   Clear
4:55 PM 74.7 °F - 12.2 °F 9% 29.88 in 10.0 mi SW 18.4 mph 27.6 mph N/A   Clear
5:15 PM 73.0 °F - 11.3 °F 9% 29.87 in 10.0 mi WSW 18.4 mph 28.8 mph N/A   Clear
5:35 PM 72.9 °F - 11.3 °F 9% 29.86 in 10.0 mi West 20.7 mph 27.6 mph N/A   Clear
5:55 PM 72.7 °F - 11.1 °F 9% 29.85 in 10.0 mi WSW 19.6 mph 29.9 mph N/A   Clear
6:15 PM 72.1 °F - 10.4 °F 9% 29.85 in 10.0 mi WSW 19.6 mph 31.1 mph N/A   Clear
6:35 PM 71.4 °F - 11.5 °F 10% 29.84 in 10.0 mi SW 21.9 mph 28.8 mph N/A   Clear
6:55 PM 70.5 °F - 10.9 °F 10% 29.84 in 10.0 mi SW 18.4 mph 28.8 mph N/A   Clear
7:15 PM 69.3 °F - 11.5 °F 11% 29.83 in 10.0 mi SW 20.7 mph 27.6 mph N/A   Clear
7:35 PM 67.8 °F - 11.3 °F 11% 29.82 in 10.0 mi SW 15.0 mph 25.3 mph N/A   Clear
7:55 PM 65.8 °F - 11.3 °F 12% 29.82 in 10.0 mi SW 15.0 mph 23.0 mph N/A   Clear
8:15 PM 64.2 °F - 11.1 °F 13% 29.82 in 10.0 mi SSW 12.7 mph - N/A   Clear
8:35 PM 63.1 °F - 10.9 °F 13% 29.82 in 10.0 mi SSW 11.5 mph 16.1 mph N/A   Clear
8:55 PM 62.6 °F - 10.8 °F 13% 29.82 in 10.0 mi SW 13.8 mph 18.4 mph N/A   Clear
9:15 PM 61.9 °F - 10.8 °F 13% 29.82 in 10.0 mi SSW 12.7 mph 18.4 mph N/A   Clear
9:35 PM 61.0 °F - 10.6 °F 14% 29.82 in 10.0 mi SSW 11.5 mph - N/A   Clear
9:55 PM 61.7 °F - 10.2 °F 13% 29.81 in 10.0 mi SSW 12.7 mph - N/A   Clear
10:35 PM 62.2 °F - 9.5 °F 13% 29.81 in 10.0 mi SW 17.3 mph 23.0 mph N/A   Clear
10:55 PM 61.3 °F - 10.8 °F 14% 29.81 in 10.0 mi SSW 15.0 mph - N/A   Clear
11:15 PM 61.7 °F - 11.1 °F 14% 29.81 in 10.0 mi SSW 15.0 mph - N/A   Clear
11:35 PM 61.2 °F - 11.8 °F 14% 29.81 in 10.0 mi SSW 11.5 mph - N/A   Clear
11:55 PM 61.5 °F - 12.7 °F 15% 29.81 in 10.0 mi SSW 11.5 mph - N/A   Clear